Eureka, Nunavut

3:32 AM CDT on May 27, 2017 (GMT -0500)
Eureka

Weather History for CWEU - December, 2013

Change the Weather History Date:

Monday, December 16, 2013

  Actual Average Record
Temperature  
Mean Temperature -31 °F -  
Max Temperature -24 °F -26 °F 8 °F (2010)
Min Temperature -38 °F -39 °F -47 °F (2004)
Degree Days  
Heating Degree Days 96    
Moisture  
Dew Point -35 °F    
Average Humidity 60    
Maximum Humidity 63    
Minimum Humidity 41    
Precipitation  
Precipitation 0.02 in 0.00 in - ()
Sea Level Pressure  
Sea Level Pressure 29.56 in    
Wind  
Wind Speed 3 mph ()    
Max Wind Speed 6 mph    
Max Gust Speed -    
Visibility 8.1 miles    
Events Snow    
Averages and records for this station are not official NWS values.
T = Trace of Precipitation, MM = Missing Value Source: Averaged Metar Reports

Daily Weather History Graph

Daily Weather History Graph

Search for Another Location

Airport or City:

Trip Planner

Search our weather history database for the weather conditions in past years. The results will help you decide how hot, cold, wet, or windy it might be!

Date:

Astronomy

Dec. 31, 1969 Rise Set
Actual Time Sun does not set Sun does not set
Civil Twilight Sun does not set Sun does not set
Nautical Twilight Sun does not set Sun does not set
Astronomical Twilight 7:41 AM CST 3:37 PM CST
Moon No Moon Rise No Moon Set
Length of Visible Light 0h 00m
Length of Day
0h 00m
Full, 100% of the Moon is Illuminated
Dec 16
Full
Dec 17
Full
Dec 25
Last Quarter
Jan 1
New
Jan 7
First Quarter

Hourly Weather History & Observations

Time (CST) Temp. Windchill Dew Point Humidity Pressure Visibility Wind Dir Wind Speed Gust Speed Precip Events Conditions
12:00 AM -20 °F - -28 °F 48% 29.47 in 10 mi NW 5.8 mph - - Snow Light Snow
12:00 AM -20.2 °F -35.5 °F -29.2 °F 63% 29.47 in 10.0 mi NW 5.8 mph - N/A Snow Light Snow
1:00 AM -20.2 °F - -29.2 °F 63% 29.49 in 7.0 mi NW 2.3 mph - N/A Snow Light Snow
2:00 AM -20.2 °F -30.9 °F -29.2 °F 63% 29.50 in 5.0 mi NW 3.5 mph - N/A Snow Light Snow
3:00 AM -23.8 °F - -32.8 °F 63% 29.52 in 5.0 mi NNW 2.3 mph - N/A Snow Light Snow
4:00 AM -23.8 °F - -32.8 °F 63% 29.53 in 5.0 mi SSE 2.3 mph - N/A Snow Light Snow
5:00 AM -23.8 °F -37.7 °F -32.8 °F 63% 29.54 in 10.0 mi SE 4.6 mph - N/A Snow Light Snow
6:00 AM -24 °F - -33 °F 44% 29.54 in 7 mi SE 4.6 mph - - Snow Light Snow
6:00 AM -23.8 °F -37.7 °F -32.8 °F 63% 29.54 in 7.0 mi SE 4.6 mph - N/A Snow Light Snow
7:00 AM -23.8 °F -37.7 °F -32.8 °F 63% 29.55 in 5.0 mi SE 4.6 mph - N/A Snow Light Snow
8:00 AM -25.6 °F - -34.6 °F 63% 29.56 in 5.0 mi ESE 2.3 mph - N/A Snow Light Snow
9:00 AM -25.6 °F -39.8 °F -34.6 °F 63% 29.56 in 10.0 mi SE 4.6 mph - N/A Snow Light Snow
10:00 AM -25.6 °F -37.1 °F -34.6 °F 63% 29.56 in 5.0 mi SE 3.5 mph - N/A Snow Light Snow
11:00 AM -25.6 °F - -34.6 °F 63% 29.57 in 5.0 mi NE 2.3 mph - N/A Snow Light Snow
12:00 PM -27 °F - -37 °F 41% 29.58 in 5 mi Calm Calm - - Snow Light Snow
12:00 PM -27.4 °F - -36.4 °F 62% 29.58 in 5.0 mi SE 2.3 mph - N/A Snow Light Snow
1:00 PM -29.2 °F -41.2 °F -38.2 °F 62% 29.59 in 15.0 mi SSE 3.5 mph - N/A Snow Light Snow
2:00 PM -27.4 °F -39.2 °F -36.4 °F 62% 29.60 in 6.0 mi SE 3.5 mph - N/A Snow Light Snow
3:00 PM -27.4 °F - -36.4 °F 62% 29.60 in 15.0 mi Calm Calm - N/A Snow Light Snow
4:00 PM -31.0 °F -43.3 °F -40.0 °F 62% 29.60 in 6.0 mi SE 3.5 mph - N/A Snow Light Snow
5:00 PM -27.4 °F - -36.4 °F 62% 29.60 in 15.0 mi Calm Calm - N/A Snow Light Snow
6:00 PM -29 °F - -37 °F 45% 29.60 in 15 mi Calm Calm - - Snow Light Snow
6:00 PM -29.2 °F - -38.2 °F 62% 29.60 in 15.0 mi ESE 2.3 mph - N/A Snow Light Snow
7:00 PM -27.4 °F - -38.2 °F 57% 29.62 in 5.0 mi Calm Calm - N/A Snow Light Snow
8:00 PM -29.2 °F -41.2 °F -38.2 °F 62% 29.61 in 6.0 mi SE 3.5 mph - N/A Snow Light Snow
9:00 PM -31.0 °F - -40.0 °F 62% 29.62 in 6.0 mi Calm Calm - N/A Snow Light Snow